When you browse on this site, cookies collect data to enhance your experience and personalize the content and advertising you see.
Visit our Privacy Policy to learn more. By continuing to use the site, you agree to this use of cookies and data.
  • In France
  • List of Countries
  • For 7 days
  • Water Temperature
  • Weather Map
  • Weather Widgets
  • user-avatar
    Login

    Hourly Weather Aracaju

    Today, 22 November, Friday

    Time Temperature Precipitation Wind Pressure Humidity
    00:00 +26°C° 0 mm 2 mps 757 mmHg 86%
    01:00 +26°C° 0 mm 3 mps 757 mmHg 87%
    02:00 +26°C° 0 mm 2 mps 757 mmHg 87%
    03:00 +25°C° 0 mm 2 mps 757 mmHg 87%
    04:00 +25°C° 0 mm 2 mps 757 mmHg 87%
    05:00 +26°C° 0.2 mm 2 mps 757 mmHg 86%
    06:00 +26°C° 0.2 mm 3 mps 757 mmHg 85%
    07:00 +26°C° 0.2 mm 3 mps 758 mmHg 84%
    08:00 +28°C° 0.1 mm 4 mps 758 mmHg 76%
    09:00 +29°C° 0.1 mm 4 mps 758 mmHg 68%
    10:00 +32°C° 0.1 mm 5 mps 759 mmHg 59%
    11:00 +32°C° 0 mm 5 mps 758 mmHg 58%
    12:00 +33°C° 0 mm 5 mps 758 mmHg 56%
    13:00 +33°C° 0 mm 5 mps 757 mmHg 54%
    14:00 +33°C° 0 mm 5 mps 757 mmHg 56%
    15:00 +32°C° 0 mm 5 mps 756 mmHg 57%
    16:00 +32°C° 0 mm 5 mps 756 mmHg 59%
    17:00 +30°C° 0 mm 4 mps 756 mmHg 65%
    18:00 +28°C° 0 mm 4 mps 757 mmHg 72%
    19:00 +27°C° 0 mm 4 mps 757 mmHg 78%
    20:00 +27°C° 0 mm 4 mps 757 mmHg 80%
    21:00 +27°C° 0 mm 4 mps 758 mmHg 82%
    22:00 +26°C° 0 mm 4 mps 758 mmHg 84%
    23:00 +26°C° 0 mm 4 mps 758 mmHg 85%

    Tomorrow, 23 November, Saturday

    Time Temperature Precipitation Wind Pressure Humidity
    00:00 +26°C° 0 mm 4 mps 758 mmHg 87%
    01:00 +26°C° 0 mm 4 mps 758 mmHg 88%
    02:00 +26°C° 0 mm 3 mps 757 mmHg 88%
    03:00 +26°C° 0 mm 3 mps 757 mmHg 88%
    04:00 +26°C° 0 mm 3 mps 756 mmHg 87%
    05:00 +26°C° 0.1 mm 3 mps 757 mmHg 86%
    06:00 +26°C° 0.1 mm 3 mps 757 mmHg 85%
    07:00 +26°C° 0.1 mm 4 mps 758 mmHg 84%
    08:00 +28°C° 0.1 mm 4 mps 758 mmHg 77%
    09:00 +29°C° 0.1 mm 4 mps 758 mmHg 70%
    10:00 +32°C° 0.1 mm 5 mps 758 mmHg 63%
    11:00 +32°C° 0 mm 5 mps 758 mmHg 61%
    12:00 +32°C° 0 mm 4 mps 757 mmHg 59%
    13:00 +33°C° 0 mm 4 mps 757 mmHg 57%
    14:00 +32°C° 0 mm 5 mps 756 mmHg 59%
    15:00 +32°C° 0 mm 5 mps 756 mmHg 60%
    16:00 +32°C° 0 mm 5 mps 755 mmHg 62%
    17:00 +30°C° 0 mm 5 mps 755 mmHg 68%
    18:00 +29°C° 0 mm 5 mps 756 mmHg 73%
    19:00 +27°C° 0 mm 5 mps 756 mmHg 78%
    20:00 +27°C° 0 mm 5 mps 756 mmHg 80%
    21:00 +27°C° 0 mm 5 mps 757 mmHg 81%
    22:00 +27°C° 0 mm 5 mps 757 mmHg 83%
    23:00 +26°C° 0 mm 5 mps 757 mmHg 85%

    Day after tomorrow, 24 November, Sunday

    Time Temperature Precipitation Wind Pressure Humidity
    00:00 +26°C° 0 mm 4 mps 756 mmHg 87%
    01:00 +26°C° 0 mm 4 mps 756 mmHg 89%
    02:00 +26°C° 0 mm 4 mps 756 mmHg 89%
    03:00 +25°C° 0 mm 4 mps 756 mmHg 89%
    04:00 +25°C° 0 mm 4 mps 755 mmHg 89%
    05:00 +25°C° 0 mm 4 mps 756 mmHg 88%
    06:00 +25°C° 0 mm 4 mps 756 mmHg 86%
    07:00 +26°C° 0 mm 4 mps 756 mmHg 84%
    08:00 +28°C° 0 mm 4 mps 757 mmHg 73%
    09:00 +30°C° 0 mm 4 mps 757 mmHg 63%
    10:00 +33°C° 0 mm 3 mps 757 mmHg 52%
    11:00 +34°C° 0 mm 4 mps 756 mmHg 52%
    12:00 +34°C° 0 mm 4 mps 755 mmHg 52%
    13:00 +35°C° 0 mm 5 mps 755 mmHg 52%
    14:00 +34°C° 0 mm 5 mps 754 mmHg 55%
    15:00 +33°C° 0 mm 6 mps 753 mmHg 59%
    16:00 +32°C° 0 mm 6 mps 753 mmHg 62%
    17:00 +30°C° 0 mm 6 mps 753 mmHg 68%
    18:00 +29°C° 0 mm 6 mps 753 mmHg 75%
    19:00 +28°C° 0 mm 6 mps 754 mmHg 81%
    20:00 +28°C° 0 mm 6 mps 754 mmHg 82%
    21:00 +27°C° 0 mm 6 mps 755 mmHg 83%
    22:00 +27°C° 0 mm 6 mps 755 mmHg 85%
    23:00 +27°C° 0 mm 5 mps 755 mmHg 85%

    25 November, Monday

    Time Temperature Precipitation Wind Pressure Humidity
    00:00 +27°C° 0 mm 5 mps 755 mmHg 85%
    01:00 +27°C° 0 mm 4 mps 755 mmHg 86%
    02:00 +26°C° 0 mm 4 mps 755 mmHg 86%
    03:00 +26°C° 0 mm 4 mps 754 mmHg 86%
    04:00 +26°C° 0 mm 4 mps 754 mmHg 86%
    05:00 +26°C° 0 mm 4 mps 755 mmHg 84%
    06:00 +26°C° 0 mm 4 mps 755 mmHg 81%
    07:00 +27°C° 0 mm 3 mps 756 mmHg 79%
    08:00 +29°C° 0 mm 3 mps 756 mmHg 71%
    09:00 +32°C° 0 mm 2 mps 756 mmHg 62%
    10:00 +35°C° 0 mm 2 mps 756 mmHg 53%
    11:00 +35°C° 0 mm 3 mps 756 mmHg 54%
    12:00 +35°C° 0 mm 4 mps 755 mmHg 56%
    13:00 +34°C° 0 mm 6 mps 755 mmHg 57%
    14:00 +34°C° 0 mm 6 mps 754 mmHg 61%
    15:00 +33°C° 0 mm 6 mps 754 mmHg 64%
    16:00 +32°C° 0 mm 7 mps 753 mmHg 67%
    17:00 +30°C° 0 mm 6 mps 754 mmHg 72%
    18:00 +29°C° 0 mm 6 mps 755 mmHg 77%
    19:00 +28°C° 0 mm 5 mps 755 mmHg 82%
    20:00 +28°C° 0 mm 5 mps 756 mmHg 83%
    21:00 +28°C° 0 mm 5 mps 756 mmHg 84%
    22:00 +28°C° 0 mm 5 mps 757 mmHg 85%
    23:00 +28°C° 0 mm 4 mps 757 mmHg 86%

    26 November, Tuesday

    Time Temperature Precipitation Wind Pressure Humidity
    00:00 +27°C° 0 mm 4 mps 756 mmHg 87%
    01:00 +27°C° 0 mm 3 mps 756 mmHg 88%
    02:00 +27°C° 0 mm 3 mps 756 mmHg 89%
    03:00 +27°C° 0 mm 3 mps 756 mmHg 90%
    04:00 +26°C° 0 mm 3 mps 755 mmHg 90%
    05:00 +27°C° 0 mm 3 mps 756 mmHg 88%
    06:00 +27°C° 0 mm 3 mps 756 mmHg 86%
    07:00 +27°C° 0 mm 3 mps 756 mmHg 84%
    08:00 +29°C° 0 mm 4 mps 757 mmHg 75%
    09:00 +32°C° 0 mm 4 mps 757 mmHg 67%
    10:00 +33°C° 0 mm 4 mps 757 mmHg 58%
    11:00 +34°C° 0 mm 4 mps 756 mmHg 57%
    12:00 +34°C° 0 mm 5 mps 756 mmHg 56%
    13:00 +34°C° 0 mm 6 mps 755 mmHg 56%
    14:00 +34°C° 0 mm 6 mps 755 mmHg 58%
    15:00 +33°C° 0 mm 6 mps 755 mmHg 61%
    16:00 +33°C° 0 mm 6 mps 754 mmHg 63%
    17:00 +32°C° 0 mm 6 mps 755 mmHg 68%
    18:00 +29°C° 0 mm 6 mps 755 mmHg 73%
    19:00 +28°C° 0 mm 5 mps 756 mmHg 78%
    20:00 +28°C° 0 mm 5 mps 756 mmHg 80%
    21:00 +28°C° 0 mm 5 mps 757 mmHg 82%
    22:00 +28°C° 0 mm 4 mps 757 mmHg 83%
    23:00 +27°C° 0 mm 4 mps 757 mmHg 85%

    27 November, Wednesday

    Time Temperature Precipitation Wind Pressure Humidity
    00:00 +27°C° 0 mm 3 mps 757 mmHg 87%
    01:00 +26°C° 0 mm 3 mps 757 mmHg 88%
    02:00 +26°C° 0 mm 3 mps 756 mmHg 89%
    03:00 +26°C° 0 mm 3 mps 756 mmHg 90%
    04:00 +26°C° 0 mm 3 mps 756 mmHg 90%
    05:00 +26°C° 0 mm 3 mps 756 mmHg 88%
    06:00 +26°C° 0 mm 3 mps 756 mmHg 86%
    07:00 +26°C° 0 mm 3 mps 757 mmHg 84%
    08:00 +28°C° 0 mm 3 mps 757 mmHg 75%
    09:00 +30°C° 0 mm 3 mps 757 mmHg 66%
    10:00 +33°C° 0 mm 3 mps 757 mmHg 56%
    11:00 +33°C° 0 mm 4 mps 757 mmHg 56%
    12:00 +33°C° 0 mm 4 mps 757 mmHg 56%
    13:00 +34°C° 0 mm 5 mps 756 mmHg 55%
    14:00 +33°C° 0 mm 5 mps 756 mmHg 57%
    15:00 +33°C° 0 mm 5 mps 755 mmHg 59%
    16:00 +32°C° 0 mm 5 mps 755 mmHg 61%
    17:00 +30°C° 0 mm 5 mps 755 mmHg 67%
    18:00 +29°C° 0 mm 5 mps 756 mmHg 73%
    19:00 +28°C° 0 mm 5 mps 756 mmHg 78%
    20:00 +28°C° 0 mm 5 mps 756 mmHg 80%
    21:00 +28°C° 0 mm 5 mps 757 mmHg 82%
    22:00 +28°C° 0 mm 5 mps 757 mmHg 84%
    23:00 +28°C° 0 mm 5 mps 757 mmHg 85%
    Show more